Regional Weather Roundup
Issued by NWS

Home | Current Version | Previous Version | Graphics & Text | Print | Product List | Glossary On
Versions: 1 2 3 4 5 6 7 8 9 10 11 12 13 14 15 16 17 18 19 20 21 22 23 24 25 26 27 28 29 30 31 32 33 34 35 36 37 38 39 40 41 42 43 44 45 46 47 48 49 50
000
ASUS43 KTOP 011359
RWRKS

WEATHER ROUNDUP FOR KANSAS
NATIONAL WEATHER SERVICE GOODLAND KS
800 AM CST SUN MAR 01 2015

NOTE:  "FAIR" INDICATES FEW OR NO CLOUDS BELOW 12,000 FEET WITH NO
SIGNIFICANT WEATHER AND/OR OBSTRUCTIONS TO VISIBILITY.

KSZ001>006-013>018-027>032-041>047-011500-
NORTHWEST KANSAS

CITY           SKY/WX    TMP DP  RH WIND       PRES   REMARKS
GOODLAND       CLOUDY    21  18  88 SW3       30.20R
HAYS           MOCLDY    18   7  62 NW6       30.30R
HILL CITY      PTCLDY    12   8  84 W7        30.30R FOG
RUSSELL        MOCLDY    17  16  95 CALM      30.30S FOG
$$

KSZ061>065-074>080-084>089-011500-
SOUTHWEST KANSAS

CITY           SKY/WX    TMP DP  RH WIND       PRES   REMARKS
DODGE CITY     CLOUDY    21  17  84 CALM      30.27R FOG
ELKHART          N/A     22  16  78 N6          N/A
GARDEN CITY    CLOUDY    20  19  96 E3        30.25R FOG
GREAT BEND     CLOUDY    18  12  79 CALM      30.33R
LIBERAL        CLOUDY    21  18  86 E6        30.25R
$$

KSZ066>073-081>083-090>101-011500-
SOUTHEAST KANSAS

CITY           SKY/WX    TMP DP  RH WIND       PRES   REMARKS
CHANUTE        CLOUDY    24  21  88 N5        30.38R
COFFEYVILLE    CLOUDY    25  24  96 CALM      30.39S FOG
HUTCHINSON     MOCLDY    18  14  84 CALM      30.35R FOG
MEDICINE LODGE   N/A     21  21 100 CALM      30.35R
NEWTON         PTSUNNY   19  16  86 CALM      30.36R
PARSONS        CLOUDY    26  24  92 CALM      30.38S FOG
WICHITA INTL   FRZ RAIN  24  23  96 CALM      30.37R FOG
WICHITA JABRA  PTSUNNY   22  20  92 CALM      30.35R FOG
WICHITA MCCONL FRZ DRZL  23  21  93 E2        30.36R FOG
WINFIELD       CLOUDY    24  22  91 N3        30.37R FOG
$$

KSZ007>012-019>026-033>040-048>060-102>105-011500-
NORTHEAST KANSAS

CITY           SKY/WX    TMP DP  RH WIND       PRES   REMARKS
CONCORDIA      MOCLDY    17  14  88 W5        30.35R FOG
EMPORIA        LGT SNOW  22  19  89 CALM      30.36R FOG
LAWRENCE       CLOUDY    21  19  92 CALM      30.39R FOG
MANHATTAN      MOSUNNY   17  15  92 CALM      30.38R
OLATHE IND     CLOUDY    22  19  89 CALM      30.37S FOG
OLATHE EXE     CLOUDY    23  21  92 CALM      30.36S
SALINA         CLOUDY    18  15  88 CALM      30.37R
TOPEKA BILLARD CLOUDY    22  19  89 CALM      30.39R FOG
TOPEKA FORBES  CLOUDY    23  19  85 CALM      30.37R
$$



USA.gov is the U.S. government's official web portal to all federal, state and local government web resources and services.